Date String (YYYY-MM-DD hh:mm:ss) UTC,Instrument flags,Ambient pressure (hPa),Sample flow (lpm),Bypass flow (lpm),Sample temperature (°C),Ambient temperature (°C),ASC tube jacket temperature (°C),LED temperature (°C),Box temperature (°C),Sample RH (%),Span deviation,Mass concentration (μg/m³),Mass concentration (μg/m³),Mass concentration (μg/m³)
DateTimeUTC,F1_M11,P_M11,Q1_M11,Q2_M11,T1_M11,T2_M11,T3_M11,T4_M11,T5_M11,U1_M11,ZSPAN_M11,X0_M11,X2_M11,X1_M11
2022-08-16 12:00:00,,0830.7,4.99,0.00,30.4,28.3,00.0,39.0,31.9,33.8,0000.0,0008.49,0004.62,0004.10
2022-08-16 12:01:00,,0830.7,5.01,0.00,30.3,27.9,00.0,39.0,31.8,33.8,0000.0,0008.67,0004.69,0004.12
2022-08-16 12:02:00,,0830.8,4.99,0.00,30.2,27.8,00.0,39.0,31.7,33.9,0000.0,0008.77,0004.73,0004.12
2022-08-16 12:03:00,,0830.8,5.00,0.00,30.1,27.9,00.0,39.0,31.7,34.1,0000.0,0008.66,0004.70,0004.11
2022-08-16 12:04:00,,0830.8,5.01,0.00,30.1,28.0,00.0,38.9,31.7,34.2,0000.0,0008.66,0004.70,0004.10
2022-08-16 12:05:00,,0830.8,4.99,0.00,30.1,28.1,00.0,38.9,31.7,34.1,0000.0,0008.48,0004.69,0004.10
2022-08-16 12:06:00,,0830.8,4.99,0.00,30.1,28.2,00.0,38.9,31.7,34.1,0000.0,0008.49,0004.70,0004.11
2022-08-16 12:07:00,,0830.7,5.02,0.00,30.1,28.3,00.0,38.9,31.7,34.1,0000.0,0008.43,0004.72,0004.12
2022-08-16 12:08:00,,0830.8,5.00,0.00,30.1,28.4,00.0,38.9,31.8,34.1,0000.0,0008.20,0004.68,0004.13
2022-08-16 12:09:00,,0830.7,5.00,0.00,30.1,28.5,00.0,38.9,31.8,34.1,0000.0,0008.35,0004.67,0004.13
2022-08-16 12:10:00,,0830.7,4.98,0.00,30.1,28.6,00.0,38.9,31.9,34.2,0000.0,0008.62,0004.67,0004.14
2022-08-16 12:11:00,,0830.8,5.00,0.00,30.1,28.7,00.0,38.9,31.9,34.2,0000.0,0008.56,0004.69,0004.14
2022-08-16 12:12:00,,0830.7,5.00,0.00,30.1,28.8,00.0,38.9,31.9,34.2,0000.0,0008.54,0004.70,0004.15
2022-08-16 12:13:00,,0830.8,5.00,0.00,30.1,28.8,00.0,38.9,31.9,34.2,0000.0,0008.43,0004.66,0004.14
2022-08-16 12:14:00,,0830.8,5.00,0.00,30.1,28.9,00.0,38.9,32.0,34.1,0000.0,0008.44,0004.68,0004.15
2022-08-16 12:15:00,,0830.9,5.00,0.00,30.1,28.9,00.0,38.9,32.0,34.1,0000.0,0008.31,0004.65,0004.16
2022-08-16 12:16:00,,0830.9,5.00,0.00,30.1,29.0,00.0,38.9,32.0,34.0,0000.0,0008.25,0004.64,0004.17
2022-08-16 12:17:00,,0830.9,5.00,0.00,30.2,29.0,00.0,38.9,32.0,34.3,0000.0,0008.19,0004.65,0004.17
2022-08-16 12:18:00,,0830.9,5.00,0.00,30.2,29.1,00.0,38.9,32.0,34.6,0000.0,0007.98,0004.62,0004.17
2022-08-16 12:19:00,,0830.9,5.00,0.00,30.2,29.1,00.0,38.9,32.0,34.2,0000.0,0008.02,0004.65,0004.18
2022-08-16 12:20:00,,0831.0,5.00,0.00,30.2,29.1,00.0,38.9,32.0,34.2,0000.0,0008.13,0004.63,0004.18
2022-08-16 12:21:00,,0830.9,5.01,0.00,30.2,29.2,00.0,39.0,32.1,34.3,0000.0,0008.04,0004.65,0004.17
2022-08-16 12:22:00,,0831.0,5.00,0.00,30.2,29.2,00.0,39.0,32.1,34.3,0000.0,0008.06,0004.64,0004.16
2022-08-16 12:23:00,,0830.9,4.99,0.00,30.3,29.2,00.0,39.0,32.1,34.0,0000.0,0007.94,0004.59,0004.16
2022-08-16 12:24:00,,0830.9,5.00,0.00,30.3,28.7,00.0,38.9,32.0,34.0,0000.0,0007.92,0004.59,0004.16
2022-08-16 12:25:00,,0830.9,4.99,0.00,30.2,27.8,00.0,38.9,31.8,34.4,0000.0,0007.85,0004.55,0004.16
2022-08-16 12:26:00,,0830.9,5.01,0.00,30.1,27.4,00.0,38.8,31.6,34.4,0000.0,0007.97,0004.58,0004.16
2022-08-16 12:27:00,,0830.9,5.01,0.00,30.0,27.3,00.0,38.8,31.5,34.6,0000.0,0008.08,0004.62,0004.17
2022-08-16 12:28:00,,0830.9,5.00,0.00,29.9,27.4,00.0,38.8,31.4,34.7,0000.0,0008.09,0004.60,0004.16
2022-08-16 12:29:00,,0830.9,5.01,0.00,29.8,27.5,00.0,38.7,31.4,34.8,0000.0,0008.19,0004.61,0004.16
2022-08-16 12:30:00,,0830.9,4.99,0.00,29.8,27.6,00.0,38.7,31.5,34.9,0000.0,0008.20,0004.57,0004.13
2022-08-16 12:31:00,,0831.0,5.00,0.00,29.8,27.8,00.0,38.7,31.5,34.9,0000.0,0007.90,0004.57,0004.11
2022-08-16 12:32:00,,0830.9,5.00,0.00,29.8,28.0,00.0,38.7,31.5,34.9,0000.0,0007.60,0004.53,0004.09
2022-08-16 12:33:00,,0830.9,5.01,0.00,29.8,28.1,00.0,38.7,31.5,34.7,0000.0,0007.53,0004.50,0004.08
2022-08-16 12:34:00,,0830.9,5.00,0.00,29.8,28.2,00.0,38.6,31.6,34.7,0000.0,0007.50,0004.50,0004.07
2022-08-16 12:35:00,,0830.9,5.00,0.00,29.8,28.3,00.0,38.6,31.6,34.7,0000.0,0007.60,0004.52,0004.05
2022-08-16 12:36:00,,0830.9,5.00,0.00,29.8,28.4,00.0,38.6,31.6,34.7,0000.0,0007.79,0004.52,0004.04
2022-08-16 12:37:00,,0830.9,5.00,0.00,29.8,28.5,00.0,38.6,31.7,34.7,0000.0,0007.71,0004.49,0004.02
2022-08-16 12:38:00,,0830.8,5.00,0.00,29.9,28.6,00.0,38.7,31.7,35.1,0000.0,0007.57,0004.44,0004.00
2022-08-16 12:39:00,,0830.8,4.99,0.00,30.0,28.6,00.0,38.7,31.8,35.1,0000.0,0007.63,0004.43,0003.98
2022-08-16 12:40:00,,0830.8,5.00,0.00,30.3,28.7,00.0,38.7,32.0,35.4,0000.0,0007.57,0004.40,0003.96
2022-08-16 12:41:00,,0830.8,5.01,0.00,30.6,28.7,00.0,38.7,32.1,35.3,0000.0,0007.50,0004.37,0003.94
2022-08-16 12:42:00,,0830.9,4.99,0.00,30.9,28.8,00.0,38.7,32.2,34.1,0000.0,0007.34,0004.34,0003.92
2022-08-16 12:43:00,,0830.9,5.00,0.00,31.1,28.8,00.0,38.8,32.2,33.0,0000.0,0007.34,0004.34,0003.91
2022-08-16 12:44:00,,0830.9,5.00,0.00,31.3,28.9,00.0,38.9,32.2,32.9,0000.0,0007.40,0004.36,0003.90
2022-08-16 12:45:00,,0830.9,5.00,0.00,31.3,28.9,00.0,39.0,32.2,32.8,0000.0,0007.51,0004.34,0003.89
2022-08-16 12:46:00,,0830.9,5.01,0.00,31.3,29.0,00.0,39.1,32.2,33.3,0000.0,0007.58,0004.32,0003.87
2022-08-16 12:47:00,,0830.9,4.99,0.00,31.3,29.0,00.0,39.2,32.2,32.6,0000.0,0007.37,0004.30,0003.87
2022-08-16 12:48:00,,0830.9,5.00,0.00,31.3,29.0,00.0,39.2,32.2,32.8,0000.0,0007.55,0004.33,0003.88
2022-08-16 12:49:00,,0830.9,5.01,0.00,31.3,29.1,00.0,39.3,32.2,32.7,0000.0,0007.62,0004.37,0003.89
2022-08-16 12:50:00,,0830.9,5.00,0.00,31.3,29.1,00.0,39.4,32.3,32.9,0000.0,0007.61,0004.39,0003.91
2022-08-16 12:51:00,,0830.9,5.00,0.00,31.3,29.1,00.0,39.4,32.3,33.7,0000.0,0007.53,0004.37,0003.91
2022-08-16 12:52:00,,0830.9,5.00,0.00,31.3,29.2,00.0,39.5,32.3,33.6,0000.0,0007.70,0004.39,0003.92
2022-08-16 12:53:00,,0830.9,5.00,0.00,31.3,29.2,00.0,39.5,32.3,33.7,0000.0,0007.82,0004.39,0003.94
2022-08-16 12:54:00,,0830.9,5.00,0.00,31.3,29.2,00.0,39.5,32.4,33.5,0000.0,0007.97,0004.41,0003.96
2022-08-16 12:55:00,,0830.9,4.99,0.00,31.2,28.7,00.0,39.5,32.2,33.5,0000.0,0007.91,0004.40,0003.98
2022-08-16 12:56:00,,0830.9,5.00,0.00,31.1,28.1,00.0,39.5,32.0,33.1,0000.0,0007.91,0004.42,0004.02
2022-08-16 12:57:00,,0830.9,4.99,0.00,31.0,27.9,00.0,39.5,32.0,33.6,0000.0,0008.38,0004.43,0004.04
2022-08-16 12:58:00,,0830.9,5.01,0.00,30.9,27.9,00.0,39.4,31.9,33.8,0000.0,0008.35,0004.43,0004.06
2022-08-16 12:59:00,,0831.0,4.99,0.00,30.8,28.0,00.0,39.4,31.9,34.3,0000.0,0008.22,0004.44,0004.08
